sat.trackr.live / text

‹ back to catalog

STARLINK-36335

NORAD 68015 · 2026-040A

PAYLOAD ACTIVE UNKNOWN

§ Identity

Operator
Country
US
Launch date
2026-03-01
Launch site
AFWTR
Launch vehicle
Mass (kg)
RCS (m²)

Purposes: comms

External: N2YO · Heavens-Above · Gunter

§ Orbital elements

Epoch: 2026-05-25T03:12:20.805696Z

Period
93.91 min
Inclination
97.2848°
Eccentricity
0.0001553
Mean motion
15.33455899 rev/d
Perigee alt
464.4 km
Apogee alt
466.6 km
Semi-major
6,843.6 km
B*
5.1417e-4
RAAN
94.0801°
Arg perigee
90.5403°
Mean anomaly
269.6018°
Rev number
1,317

§ Raw data

STARLINK-363351 68015U 26040A   26145.13357414  .00016567  00000+0  51417-3 0  99932 68015  97.2848  94.0801 0001553  90.5403 269.6018 15.33455899 13173

JSON: /api/v1/satellites/68015 · /tle

For live sub-satellite position, see the globe view (requires WebGL).

§ Visibility from observer

Set your observer location to see the next 7 days of passes ≥ 10°. The values pass through the URL so the page stays shareable.

No JS? Fill the form by hand. The geolocation button needs JavaScript.